This is the latest recevied weather packets stored in our database for station/object YO7ZRO-13. If no packets are shown the sender has not sent any weather packets the latest 10 day(s).
| Time | Temp. | Humidity | Pressure | Rain* | Wind** | Luminosity | Snow |
|---|---|---|---|---|---|---|---|
| 1787945622 | 21.11° C | 46% | 1017.3 hPa | - | - | - | - |
| 1787945561 | 21.11° C | 46% | 1017.3 hPa | - | - | - | - |
| 1787945503 | 21.11° C | 46% | 1017.3 hPa | - | - | - | - |
| 1787945442 | 21.11° C | 45% | 1017.5 hPa | - | - | - | - |
| 1787945382 | 21.11° C | 45% | 1017.5 hPa | - | - | - | - |
| 1787945323 | 21.11° C | 45% | 1017.4 hPa | - | - | - | - |
| 1787945261 | 21.11° C | 45% | 1017.4 hPa | - | - | - | - |
| 1787945202 | 21.11° C | 45% | 1017.3 hPa | - | - | - | - |
| 1787945142 | 21.11° C | 45% | 1017.3 hPa | - | - | - | - |
| 1787945082 | 21.11° C | 45% | 1017.2 hPa | - | - | - | - |
| 1787945022 | 21.11° C | 45% | 1017.2 hPa | - | - | - | - |
| 1787944963 | 21.67° C | 46% | 1017.2 hPa | - | - | - | - |
| 1787944902 | 21.67° C | 46% | 1017.2 hPa | - | - | - | - |
| 1787944842 | 21.67° C | 46% | 1017.1 hPa | - | - | - | - |
| 1787944781 | 21.67° C | 46% | 1017.1 hPa | - | - | - | - |
| 1787944722 | 21.67° C | 45% | 1017.2 hPa | - | - | - | - |
| 1787944663 | 21.67° C | 45% | 1017.2 hPa | - | - | - | - |
| 1787944601 | 21.67° C | 42% | 1017 hPa | - | - | - | - |
| 1787944541 | 21.67° C | 42% | 1017 hPa | - | - | - | - |
| 1787944481 | 22.22° C | 44% | 1016.9 hPa | - | - | - | - |
| 1787944424 | 22.22° C | 44% | 1016.9 hPa | - | - | - | - |
| 1787944361 | 22.22° C | 41% | 1017 hPa | - | - | - | - |
| 1787944302 | 22.22° C | 41% | 1017 hPa | - | - | - | - |
| 1787944242 | 21.67° C | 44% | 1017.2 hPa | - | - | - | - |
| 1787944181 | 21.67° C | 44% | 1017.2 hPa | - | - | - | - |
* Rain since midnight (hover to see other rain measurements)
** Current wind speed in m/s (hover to see current wind gust speed)